contact:dominique.lefevre@mio.osupytheas.fr, maurice.libes@osupytheas.fr, didier.mallarino@osupytheas.fr
Project:EMSO http://www.emso-fr.org/EMSO-France
Depth: 2436.0 m
Title:EMSO Ligure Ouest : Data MII capteur CSTAR
DateTime,Latitude,Longitude,Instrument_Serial,Reference_Counts,Signal_Counts,Corrected_Signal_raw_counts,Calculated_Beam_c_inverse_meters,Internal_thermistor_counts
DateTime,Latitude,Longitude,Instrument_Serial,Reference_Counts,Signal_Counts,Corrected_Signal_raw_counts,Calculated_Beam_c_inverse_meters,Internal_thermistor_counts
2022-02-14T00:01:02,42.805,6.029,CST-1368DR,4901,6091,13269,0.651,551
2022-02-14T00:04:04,42.805,6.029,CST-1368DR,4901,6091,13270,0.651,551
2022-02-14T00:07:05,42.805,6.029,CST-1368DR,4901,6091,13270,0.651,551
2022-02-14T00:10:07,42.805,6.029,CST-1368DR,4901,6090,13269,0.651,551
2022-02-14T00:13:08,42.805,6.029,CST-1368DR,4901,6090,13269,0.651,551
2022-02-14T00:16:10,42.805,6.029,CST-1368DR,4901,6091,13269,0.651,551
2022-02-14T00:19:11,42.805,6.029,CST-1368DR,4901,6091,13269,0.651,551
2022-02-14T00:22:13,42.805,6.029,CST-1368DR,4901,6090,13268,0.652,551
2022-02-14T00:25:15,42.805,6.029,CST-1368DR,4901,6090,13267,0.652,551
2022-02-14T00:28:16,42.805,6.029,CST-1368DR,4901,6091,13269,0.651,551
2022-02-14T00:31:18,42.805,6.029,CST-1368DR,4901,6090,13269,0.651,551
2022-02-14T00:34:19,42.805,6.029,CST-1368DR,4901,6090,13269,0.651,551
2022-02-14T00:37:21,42.805,6.029,CST-1368DR,4901,6090,13268,0.652,551
2022-02-14T00:40:23,42.805,6.029,CST-1368DR,4901,6090,13269,0.651,551
2022-02-14T00:43:24,42.805,6.029,CST-1368DR,4901,6091,13269,0.651,551
2022-02-14T00:46:26,42.805,6.029,CST-1368DR,4901,6090,13268,0.652,551
2022-02-14T00:49:27,42.805,6.029,CST-1368DR,4901,6088,13263,0.653,551
2022-02-14T00:52:29,42.805,6.029,CST-1368DR,4901,6090,13267,0.652,551
2022-02-14T00:55:30,42.805,6.029,CST-1368DR,4901,6090,13267,0.652,551
2022-02-14T00:58:32,42.805,6.029,CST-1368DR,4901,6090,13269,0.651,551
2022-02-14T01:01:34,42.805,6.029,CST-1368DR,4901,6090,13268,0.652,551
2022-02-14T01:04:35,42.805,6.029,CST-1368DR,4901,6090,13268,0.652,551
2022-02-14T01:07:37,42.805,6.029,CST-1368DR,4901,6090,13267,0.652,551
2022-02-14T01:10:38,42.805,6.029,CST-1368DR,4901,6089,13266,0.652,551
2022-02-14T01:13:40,42.805,6.029,CST-1368DR,4901,6090,13268,0.652,551
2022-02-14T01:16:42,42.805,6.029,CST-1368DR,4901,6091,13269,0.651,551
2022-02-14T01:19:43,42.805,6.029,CST-1368DR,4901,6091,13269,0.651,551
2022-02-14T01:22:45,42.805,6.029,CST-1368DR,4901,6090,13268,0.652,551
2022-02-14T01:25:46,42.805,6.029,CST-1368DR,4901,6089,13265,0.653,551
2022-02-14T01:28:48,42.805,6.029,CST-1368DR,4901,6090,13267,0.652,551
2022-02-14T01:31:49,42.805,6.029,CST-1368DR,4901,6090,13267,0.652,551
2022-02-14T01:34:51,42.805,6.029,CST-1368DR,4901,6090,13269,0.651,551
2022-02-14T01:37:53,42.805,6.029,CST-1368DR,4901,6087,13261,0.654,551
2022-02-14T01:40:54,42.805,6.029,CST-1368DR,4901,6089,13267,0.652,551
2022-02-14T01:43:56,42.805,6.029,CST-1368DR,4901,6090,13267,0.652,551
2022-02-14T01:46:57,42.805,6.029,CST-1368DR,4901,6089,13265,0.653,551
2022-02-14T01:49:59,42.805,6.029,CST-1368DR,4901,6087,13261,0.654,551
2022-02-14T01:53:01,42.805,6.029,CST-1368DR,4901,6089,13265,0.653,551
2022-02-14T01:56:02,42.805,6.029,CST-1368DR,4901,6088,13263,0.653,551
2022-02-14T01:59:04,42.805,6.029,CST-1368DR,4901,6089,13267,0.652,551
2022-02-14T02:02:05,42.805,6.029,CST-1368DR,4901,6087,13262,0.654,551
2022-02-14T02:05:07,42.805,6.029,CST-1368DR,4901,6089,13265,0.653,551
2022-02-14T02:08:08,42.805,6.029,CST-1368DR,4901,6089,13265,0.653,551
2022-02-14T02:11:10,42.805,6.029,CST-1368DR,4901,6088,13264,0.653,551
2022-02-14T02:14:12,42.805,6.029,CST-1368DR,4901,6089,13267,0.652,551
2022-02-14T02:17:13,42.805,6.029,CST-1368DR,4901,6087,13262,0.654,551
2022-02-14T02:20:15,42.805,6.029,CST-1368DR,4901,6089,13265,0.653,551
2022-02-14T02:23:16,42.805,6.029,CST-1368DR,4901,6087,13262,0.654,551
2022-02-14T02:26:18,42.805,6.029,CST-1368DR,4901,6089,13265,0.653,551
2022-02-14T02:29:19,42.805,6.029,CST-1368DR,4901,6088,13264,0.653,551
2022-02-14T02:32:21,42.805,6.029,CST-1368DR,4901,6088,13264,0.653,551
2022-02-14T02:35:23,42.805,6.029,CST-1368DR,4901,6087,13262,0.654,551
2022-02-14T02:38:24,42.805,6.029,CST-1368DR,4901,6089,13265,0.653,551
2022-02-14T02:41:26,42.805,6.029,CST-1368DR,4901,6088,13264,0.653,551
2022-02-14T02:44:27,42.805,6.029,CST-1368DR,4901,6089,13265,0.653,551
2022-02-14T02:47:29,42.805,6.029,CST-1368DR,4901,6087,13261,0.654,551
2022-02-14T02:50:31,42.805,6.029,CST-1368DR,4901,6089,13266,0.652,551
2022-02-14T02:53:32,42.805,6.029,CST-1368DR,4901,6089,13265,0.653,551
2022-02-14T02:56:34,42.805,6.029,CST-1368DR,4901,6088,13264,0.653,551
2022-02-14T02:59:35,42.805,6.029,CST-1368DR,4901,6087,13261,0.654,551
2022-02-14T03:02:37,42.805,6.029,CST-1368DR,4901,6089,13265,0.653,551
2022-02-14T03:05:38,42.805,6.029,CST-1368DR,4901,6089,13265,0.653,551
2022-02-14T03:08:40,42.805,6.029,CST-1368DR,4901,6088,13264,0.653,550
2022-02-14T03:11:42,42.805,6.029,CST-1368DR,4901,6087,13261,0.654,551
2022-02-14T03:14:43,42.805,6.029,CST-1368DR,4901,6087,13261,0.654,551
2022-02-14T03:17:45,42.805,6.029,CST-1368DR,4901,6087,13262,0.654,551
2022-02-14T03:20:46,42.805,6.029,CST-1368DR,4901,6088,13263,0.653,551
2022-02-14T03:23:48,42.805,6.029,CST-1368DR,4901,6089,13265,0.653,551
2022-02-14T03:26:50,42.805,6.029,CST-1368DR,4901,6087,13261,0.654,551
2022-02-14T03:29:51,42.805,6.029,CST-1368DR,4901,6088,13263,0.653,551
2022-02-14T03:32:53,42.805,6.029,CST-1368DR,4901,6086,13259,0.654,551
2022-02-14T03:35:54,42.805,6.029,CST-1368DR,4901,6086,13260,0.654,551
2022-02-14T03:38:56,42.805,6.029,CST-1368DR,4901,6085,13257,0.655,551
2022-02-14T03:41:57,42.805,6.029,CST-1368DR,4901,6087,13261,0.654,551
2022-02-14T03:44:59,42.805,6.029,CST-1368DR,4901,6087,13262,0.654,551
2022-02-14T03:48:01,42.805,6.029,CST-1368DR,4901,6087,13262,0.654,551
2022-02-14T03:51:02,42.805,6.029,CST-1368DR,4901,6084,13255,0.656,551
2022-02-14T03:54:04,42.805,6.029,CST-1368DR,4901,6087,13261,0.654,551
2022-02-14T03:57:05,42.805,6.029,CST-1368DR,4901,6086,13258,0.655,551
2022-02-14T04:00:07,42.805,6.029,CST-1368DR,4901,6087,13262,0.654,551
2022-02-14T04:03:08,42.805,6.029,CST-1368DR,4901,6084,13256,0.655,551
2022-02-14T04:06:10,42.805,6.029,CST-1368DR,4901,6086,13260,0.654,551
2022-02-14T04:09:12,42.805,6.029,CST-1368DR,4901,6085,13257,0.655,551
2022-02-14T04:12:13,42.805,6.029,CST-1368DR,4901,6086,13258,0.655,551
2022-02-14T04:15:15,42.805,6.029,CST-1368DR,4901,6086,13260,0.654,551
2022-02-14T04:18:16,42.805,6.029,CST-1368DR,4901,6085,13258,0.655,551
2022-02-14T04:21:18,42.805,6.029,CST-1368DR,4901,6085,13257,0.655,551
2022-02-14T04:24:20,42.805,6.029,CST-1368DR,4901,6085,13257,0.655,551
2022-02-14T04:27:21,42.805,6.029,CST-1368DR,4901,6087,13261,0.654,551
2022-02-14T04:30:23,42.805,6.029,CST-1368DR,4901,6086,13259,0.654,551
2022-02-14T04:33:24,42.805,6.029,CST-1368DR,4901,6086,13260,0.654,551
2022-02-14T04:36:26,42.805,6.029,CST-1368DR,4901,6085,13257,0.655,551
2022-02-14T04:39:27,42.805,6.029,CST-1368DR,4901,6085,13257,0.655,551
2022-02-14T04:42:29,42.805,6.029,CST-1368DR,4901,6087,13261,0.654,551
2022-02-14T04:45:31,42.805,6.029,CST-1368DR,4901,6086,13259,0.654,551
2022-02-14T04:48:32,42.805,6.029,CST-1368DR,4901,6087,13261,0.654,551
2022-02-14T04:51:34,42.805,6.029,CST-1368DR,4901,6083,13253,0.656,551
2022-02-14T04:54:35,42.805,6.029,CST-1368DR,4901,6084,13255,0.656,551
2022-02-14T04:57:37,42.805,6.029,CST-1368DR,4901,6085,13258,0.655,551
2022-02-14T05:00:38,42.805,6.029,CST-1368DR,4901,6086,13258,0.655,551
2022-02-14T05:03:40,42.805,6.029,CST-1368DR,4901,6085,13257,0.655,551
2022-02-14T05:06:42,42.805,6.029,CST-1368DR,4901,6084,13255,0.656,551
2022-02-14T05:09:43,42.805,6.029,CST-1368DR,4901,6084,13256,0.655,551
2022-02-14T05:12:45,42.805,6.029,CST-1368DR,4901,6086,13259,0.654,551
2022-02-14T05:15:46,42.805,6.029,CST-1368DR,4901,6086,13258,0.655,551
2022-02-14T05:18:48,42.805,6.029,CST-1368DR,4901,6086,13258,0.655,551
2022-02-14T05:21:50,42.805,6.029,CST-1368DR,4901,6086,13260,0.654,551
2022-02-14T05:24:51,42.805,6.029,CST-1368DR,4901,6086,13259,0.654,551
2022-02-14T05:27:53,42.805,6.029,CST-1368DR,4901,6084,13256,0.655,551
2022-02-14T05:30:54,42.805,6.029,CST-1368DR,4901,6086,13258,0.655,551
2022-02-14T05:33:56,42.805,6.029,CST-1368DR,4901,6086,13259,0.654,551
2022-02-14T05:36:57,42.805,6.029,CST-1368DR,4901,6087,13262,0.654,551
2022-02-14T05:39:59,42.805,6.029,CST-1368DR,4901,6086,13260,0.654,551
2022-02-14T05:43:01,42.805,6.029,CST-1368DR,4901,6084,13255,0.656,551
2022-02-14T05:46:02,42.805,6.029,CST-1368DR,4901,6086,13258,0.655,551
2022-02-14T05:49:04,42.805,6.029,CST-1368DR,4901,6086,13259,0.654,551
2022-02-14T05:52:05,42.805,6.029,CST-1368DR,4901,6085,13258,0.655,551
2022-02-14T05:55:07,42.805,6.029,CST-1368DR,4901,6085,13257,0.655,551
2022-02-14T05:58:09,42.805,6.029,CST-1368DR,4901,6084,13255,0.656,551
2022-02-14T06:01:10,42.805,6.029,CST-1368DR,4901,6083,13253,0.656,551
2022-02-14T06:04:12,42.805,6.029,CST-1368DR,4901,6083,13252,0.657,551
2022-02-14T06:07:13,42.805,6.029,CST-1368DR,4901,6085,13258,0.655,551
2022-02-14T06:10:15,42.805,6.029,CST-1368DR,4901,6085,13258,0.655,551
2022-02-14T06:13:16,42.805,6.029,CST-1368DR,4901,6084,13254,0.656,551
2022-02-14T06:16:18,42.805,6.029,CST-1368DR,4901,6084,13255,0.656,551
2022-02-14T06:19:20,42.805,6.029,CST-1368DR,4901,6085,13258,0.655,551
2022-02-14T06:22:21,42.805,6.029,CST-1368DR,4901,6084,13256,0.655,551
2022-02-14T06:25:23,42.805,6.029,CST-1368DR,4901,6086,13258,0.655,551
2022-02-14T06:28:24,42.805,6.029,CST-1368DR,4901,6086,13258,0.655,551
2022-02-14T06:31:26,42.805,6.029,CST-1368DR,4901,6087,13261,0.654,551
2022-02-14T06:34:27,42.805,6.029,CST-1368DR,4901,6084,13255,0.656,551
2022-02-14T06:37:29,42.805,6.029,CST-1368DR,4901,6086,13258,0.655,551
2022-02-14T06:40:31,42.805,6.029,CST-1368DR,4901,6086,13258,0.655,551
2022-02-14T06:43:32,42.805,6.029,CST-1368DR,4901,6084,13255,0.656,551
2022-02-14T06:46:34,42.805,6.029,CST-1368DR,4901,6083,13252,0.657,551
2022-02-14T06:49:35,42.805,6.029,CST-1368DR,4901,6086,13259,0.654,551
2022-02-14T06:52:37,42.805,6.029,CST-1368DR,4901,6085,13258,0.655,551
2022-02-14T06:55:39,42.805,6.029,CST-1368DR,4901,6085,13258,0.655,551
2022-02-14T06:58:40,42.805,6.029,CST-1368DR,4901,6084,13256,0.655,551
2022-02-14T07:01:42,42.805,6.029,CST-1368DR,4901,6084,13255,0.656,551
2022-02-14T07:04:43,42.805,6.029,CST-1368DR,4901,6085,13257,0.655,551
2022-02-14T07:07:45,42.805,6.029,CST-1368DR,4901,6085,13257,0.655,551
2022-02-14T07:10:46,42.805,6.029,CST-1368DR,4901,6086,13259,0.654,551
2022-02-14T07:13:48,42.805,6.029,CST-1368DR,4901,6086,13258,0.655,551
2022-02-14T07:16:50,42.805,6.029,CST-1368DR,4901,6085,13258,0.655,551
2022-02-14T07:19:51,42.805,6.029,CST-1368DR,4901,6085,13258,0.655,551
2022-02-14T07:22:53,42.805,6.029,CST-1368DR,4901,6086,13259,0.654,551
2022-02-14T07:25:54,42.805,6.029,CST-1368DR,4901,6086,13259,0.654,551
2022-02-14T07:28:56,42.805,6.029,CST-1368DR,4901,6086,13259,0.654,551
2022-02-14T07:31:57,42.805,6.029,CST-1368DR,4901,6086,13258,0.655,551
2022-02-14T07:34:59,42.805,6.029,CST-1368DR,4901,6085,13257,0.655,551
2022-02-14T07:38:01,42.805,6.029,CST-1368DR,4901,6086,13258,0.655,551
2022-02-14T07:41:02,42.805,6.029,CST-1368DR,4901,6086,13258,0.655,551
2022-02-14T07:44:04,42.805,6.029,CST-1368DR,4901,6085,13258,0.655,551
2022-02-14T07:47:05,42.805,6.029,CST-1368DR,4901,6085,13258,0.655,551
2022-02-14T07:50:07,42.805,6.029,CST-1368DR,4901,6086,13259,0.654,551
2022-02-14T07:53:09,42.805,6.029,CST-1368DR,4901,6084,13255,0.656,551
2022-02-14T07:56:10,42.805,6.029,CST-1368DR,4901,6086,13258,0.655,551
2022-02-14T07:59:12,42.805,6.029,CST-1368DR,4901,6086,13259,0.654,551
2022-02-14T08:02:13,42.805,6.029,CST-1368DR,4901,6086,13259,0.654,551
2022-02-14T08:05:15,42.805,6.029,CST-1368DR,4901,6085,13257,0.655,551
2022-02-14T08:08:16,42.805,6.029,CST-1368DR,4901,6086,13259,0.654,551
2022-02-14T08:11:18,42.805,6.029,CST-1368DR,4901,6084,13255,0.656,551
2022-02-14T08:14:20,42.805,6.029,CST-1368DR,4901,6086,13258,0.655,551
2022-02-14T08:17:21,42.805,6.029,CST-1368DR,4901,6084,13254,0.656,550
2022-02-14T08:20:23,42.805,6.029,CST-1368DR,4901,6084,13256,0.655,551
2022-02-14T08:23:24,42.805,6.029,CST-1368DR,4901,6086,13259,0.654,551
2022-02-14T08:26:26,42.805,6.029,CST-1368DR,4901,6085,13258,0.655,551
2022-02-14T08:29:27,42.805,6.029,CST-1368DR,4901,6084,13256,0.655,551
2022-02-14T08:32:29,42.805,6.029,CST-1368DR,4901,6084,13255,0.656,551
2022-02-14T08:35:31,42.805,6.029,CST-1368DR,4901,6086,13259,0.654,551
2022-02-14T08:38:32,42.805,6.029,CST-1368DR,4901,6084,13256,0.655,551
2022-02-14T08:41:34,42.805,6.029,CST-1368DR,4901,6085,13258,0.655,551
2022-02-14T08:44:35,42.805,6.029,CST-1368DR,4901,6086,13258,0.655,551
2022-02-14T08:47:37,42.805,6.029,CST-1368DR,4901,6084,13255,0.656,551
2022-02-14T08:50:39,42.805,6.029,CST-1368DR,4901,6083,13253,0.656,551
2022-02-14T08:53:40,42.805,6.029,CST-1368DR,4901,6086,13260,0.654,551
2022-02-14T08:56:42,42.805,6.029,CST-1368DR,4901,6086,13258,0.655,551
2022-02-14T08:59:43,42.805,6.029,CST-1368DR,4900,6087,13263,0.653,551
2022-02-14T09:02:45,42.805,6.029,CST-1368DR,4900,6086,13261,0.654,551
2022-02-14T09:05:46,42.805,6.029,CST-1368DR,4900,6085,13259,0.654,551
2022-02-14T09:08:48,42.805,6.029,CST-1368DR,4900,6086,13263,0.653,551
2022-02-14T09:11:50,42.805,6.029,CST-1368DR,4901,6086,13258,0.655,551
2022-02-14T09:14:51,42.805,6.029,CST-1368DR,4901,6085,13257,0.655,551
2022-02-14T09:17:53,42.805,6.029,CST-1368DR,4900,6085,13260,0.654,551
2022-02-14T09:20:54,42.805,6.029,CST-1368DR,4900,6083,13255,0.656,551
2022-02-14T09:23:56,42.805,6.029,CST-1368DR,4901,6086,13258,0.655,551
2022-02-14T09:26:58,42.805,6.029,CST-1368DR,4900,6085,13260,0.654,551
2022-02-14T09:29:59,42.805,6.029,CST-1368DR,4900,6085,13260,0.654,551
2022-02-14T09:33:01,42.805,6.029,CST-1368DR,4900,6086,13261,0.654,551
2022-02-14T09:36:02,42.805,6.029,CST-1368DR,4900,6086,13262,0.654,551
2022-02-14T09:39:04,42.805,6.029,CST-1368DR,4900,6083,13255,0.656,551
2022-02-14T09:42:05,42.805,6.029,CST-1368DR,4900,6085,13259,0.654,551
2022-02-14T09:45:07,42.805,6.029,CST-1368DR,4901,6087,13261,0.654,551
2022-02-14T09:48:09,42.805,6.029,CST-1368DR,4901,6086,13259,0.654,551
2022-02-14T09:51:10,42.805,6.029,CST-1368DR,4901,6084,13256,0.655,551
2022-02-14T09:54:12,42.805,6.029,CST-1368DR,4900,6083,13255,0.656,551
2022-02-14T09:57:13,42.805,6.029,CST-1368DR,4900,6085,13259,0.654,551
2022-02-14T10:00:15,42.805,6.029,CST-1368DR,4900,6085,13260,0.654,551
2022-02-14T10:03:16,42.805,6.029,CST-1368DR,4901,6086,13259,0.654,551
2022-02-14T10:06:18,42.805,6.029,CST-1368DR,4900,6084,13257,0.655,551
2022-02-14T10:09:20,42.805,6.029,CST-1368DR,4900,6083,13255,0.656,551
2022-02-14T10:12:21,42.805,6.029,CST-1368DR,4900,6084,13258,0.655,551
2022-02-14T10:15:23,42.805,6.029,CST-1368DR,4900,6084,13257,0.655,551
2022-02-14T10:18:24,42.805,6.029,CST-1368DR,4900,6084,13257,0.655,551
2022-02-14T10:21:26,42.805,6.029,CST-1368DR,4900,6083,13255,0.656,551
2022-02-14T10:24:28,42.805,6.029,CST-1368DR,4900,6084,13257,0.655,551
2022-02-14T10:27:29,42.805,6.029,CST-1368DR,4900,6084,13257,0.655,551
2022-02-14T10:30:31,42.805,6.029,CST-1368DR,4900,6085,13260,0.654,551
2022-02-14T10:33:32,42.805,6.029,CST-1368DR,4900,6084,13258,0.655,551
2022-02-14T10:36:34,42.805,6.029,CST-1368DR,4900,6085,13260,0.654,551
2022-02-14T10:39:35,42.805,6.029,CST-1368DR,4900,6084,13258,0.655,551
2022-02-14T10:42:37,42.805,6.029,CST-1368DR,4900,6083,13256,0.655,551
2022-02-14T10:45:39,42.805,6.029,CST-1368DR,4900,6086,13261,0.654,551
2022-02-14T10:48:40,42.805,6.029,CST-1368DR,4900,6084,13257,0.655,551
2022-02-14T10:51:42,42.805,6.029,CST-1368DR,4900,6084,13257,0.655,551
2022-02-14T10:54:43,42.805,6.029,CST-1368DR,4900,6084,13258,0.655,551
2022-02-14T10:57:45,42.805,6.029,CST-1368DR,4900,6084,13258,0.655,551
2022-02-14T11:00:47,42.805,6.029,CST-1368DR,4900,6085,13259,0.654,551
2022-02-14T11:03:48,42.805,6.029,CST-1368DR,4900,6083,13256,0.655,551
2022-02-14T11:06:50,42.805,6.029,CST-1368DR,4900,6084,13258,0.655,551
2022-02-14T11:09:51,42.805,6.029,CST-1368DR,4900,6086,13261,0.654,551
2022-02-14T11:12:53,42.805,6.029,CST-1368DR,4900,6084,13258,0.655,551
2022-02-14T11:15:54,42.805,6.029,CST-1368DR,4900,6085,13259,0.654,551
2022-02-14T11:18:56,42.805,6.029,CST-1368DR,4900,6083,13255,0.656,551
2022-02-14T11:21:58,42.805,6.029,CST-1368DR,4900,6084,13257,0.655,551
2022-02-14T11:24:59,42.805,6.029,CST-1368DR,4900,6086,13261,0.654,551
2022-02-14T11:28:01,42.805,6.029,CST-1368DR,4900,6080,13249,0.657,551
2022-02-14T11:31:02,42.805,6.029,CST-1368DR,4900,6084,13258,0.655,551
2022-02-14T11:34:04,42.805,6.029,CST-1368DR,4900,6082,13252,0.657,551
2022-02-14T11:37:05,42.805,6.029,CST-1368DR,4900,6085,13259,0.654,551
2022-02-14T11:40:07,42.805,6.029,CST-1368DR,4900,6085,13259,0.654,551
2022-02-14T11:43:09,42.805,6.029,CST-1368DR,4900,6082,13253,0.656,551
2022-02-14T11:46:10,42.805,6.029,CST-1368DR,4900,6086,13261,0.654,551
2022-02-14T11:49:12,42.805,6.029,CST-1368DR,4900,6086,13263,0.653,551
2022-02-14T11:52:13,42.805,6.029,CST-1368DR,4900,6084,13258,0.655,551
2022-02-14T11:55:15,42.805,6.029,CST-1368DR,4900,6085,13260,0.654,551
2022-02-14T11:58:17,42.805,6.029,CST-1368DR,4900,6084,13258,0.655,551
2022-02-14T12:01:18,42.805,6.029,CST-1368DR,4900,6084,13258,0.655,551
2022-02-14T12:04:20,42.805,6.029,CST-1368DR,4900,6085,13260,0.654,551
2022-02-14T12:07:21,42.805,6.029,CST-1368DR,4900,6085,13260,0.654,551
2022-02-14T12:10:23,42.805,6.029,CST-1368DR,4900,6085,13259,0.654,551
2022-02-14T12:13:24,42.805,6.029,CST-1368DR,4900,6086,13262,0.654,551
2022-02-14T12:16:26,42.805,6.029,CST-1368DR,4900,6086,13261,0.654,551
2022-02-14T12:19:28,42.805,6.029,CST-1368DR,4900,6086,13261,0.654,551
2022-02-14T12:22:29,42.805,6.029,CST-1368DR,4900,6086,13262,0.654,551
2022-02-14T12:25:31,42.805,6.029,CST-1368DR,4900,6086,13262,0.654,551
2022-02-14T12:28:32,42.805,6.029,CST-1368DR,4900,6085,13260,0.654,551
2022-02-14T12:31:34,42.805,6.029,CST-1368DR,4900,6080,13249,0.657,551
2022-02-14T12:34:35,42.805,6.029,CST-1368DR,4900,6086,13261,0.654,551
2022-02-14T12:37:37,42.805,6.029,CST-1368DR,4900,6086,13261,0.654,551
2022-02-14T12:40:39,42.805,6.029,CST-1368DR,4900,6083,13255,0.656,551
2022-02-14T12:43:40,42.805,6.029,CST-1368DR,4900,6085,13259,0.654,551
2022-02-14T12:46:42,42.805,6.029,CST-1368DR,4900,6085,13260,0.654,551
2022-02-14T12:49:43,42.805,6.029,CST-1368DR,4900,6085,13259,0.654,551
2022-02-14T12:52:45,42.805,6.029,CST-1368DR,4900,6082,13254,0.656,551
2022-02-14T12:55:47,42.805,6.029,CST-1368DR,4900,6083,13255,0.656,551
2022-02-14T12:58:48,42.805,6.029,CST-1368DR,4900,6085,13260,0.654,551
2022-02-14T13:01:50,42.805,6.029,CST-1368DR,4900,6082,13253,0.656,551
2022-02-14T13:04:51,42.805,6.029,CST-1368DR,4900,6084,13258,0.655,551
2022-02-14T13:07:53,42.805,6.029,CST-1368DR,4900,6085,13260,0.654,551
2022-02-14T13:10:54,42.805,6.029,CST-1368DR,4900,6085,13260,0.654,551
2022-02-14T13:13:56,42.805,6.029,CST-1368DR,4900,6085,13259,0.654,551
2022-02-14T13:16:58,42.805,6.029,CST-1368DR,4900,6086,13261,0.654,551
2022-02-14T13:19:59,42.805,6.029,CST-1368DR,4900,6085,13260,0.654,551
2022-02-14T13:23:01,42.805,6.029,CST-1368DR,4900,6086,13261,0.654,551
2022-02-14T13:26:02,42.805,6.029,CST-1368DR,4900,6085,13260,0.654,551
2022-02-14T13:29:04,42.805,6.029,CST-1368DR,4900,6086,13261,0.654,551
2022-02-14T13:32:06,42.805,6.029,CST-1368DR,4900,6085,13260,0.654,551
2022-02-14T13:35:07,42.805,6.029,CST-1368DR,4900,6087,13263,0.653,551
2022-02-14T13:38:09,42.805,6.029,CST-1368DR,4900,6086,13261,0.654,551
2022-02-14T13:41:10,42.805,6.029,CST-1368DR,4900,6085,13260,0.654,551
2022-02-14T13:44:12,42.805,6.029,CST-1368DR,4900,6084,13257,0.655,551
2022-02-14T13:47:13,42.805,6.029,CST-1368DR,4900,6085,13260,0.654,551
2022-02-14T13:50:15,42.805,6.029,CST-1368DR,4900,6084,13258,0.655,551
2022-02-14T13:53:17,42.805,6.029,CST-1368DR,4900,6084,13258,0.655,551
2022-02-14T13:56:18,42.805,6.029,CST-1368DR,4900,6085,13260,0.654,551
2022-02-14T13:59:20,42.805,6.029,CST-1368DR,4900,6085,13259,0.654,551
2022-02-14T14:02:21,42.805,6.029,CST-1368DR,4900,6085,13260,0.654,551
2022-02-14T14:05:23,42.805,6.029,CST-1368DR,4900,6084,13258,0.655,551
2022-02-14T14:08:24,42.805,6.029,CST-1368DR,4900,6083,13255,0.656,551
2022-02-14T14:11:26,42.805,6.029,CST-1368DR,4900,6083,13256,0.655,551
2022-02-14T14:14:28,42.805,6.029,CST-1368DR,4900,6081,13251,0.657,551
2022-02-14T14:17:29,42.805,6.029,CST-1368DR,4900,6085,13259,0.654,551
2022-02-14T14:20:31,42.805,6.029,CST-1368DR,4900,6084,13258,0.655,551
2022-02-14T14:23:32,42.805,6.029,CST-1368DR,4900,6084,13257,0.655,551
2022-02-14T14:26:34,42.805,6.029,CST-1368DR,4900,6083,13254,0.656,551
2022-02-14T14:29:36,42.805,6.029,CST-1368DR,4900,6083,13255,0.656,551
2022-02-14T14:32:37,42.805,6.029,CST-1368DR,4900,6084,13258,0.655,551
2022-02-14T14:35:39,42.805,6.029,CST-1368DR,4900,6081,13252,0.657,551
2022-02-14T14:38:40,42.805,6.029,CST-1368DR,4900,6083,13255,0.656,550
2022-02-14T14:41:42,42.805,6.029,CST-1368DR,4900,6083,13255,0.656,551
2022-02-14T14:44:43,42.805,6.029,CST-1368DR,4900,6085,13259,0.654,551
2022-02-14T14:47:45,42.805,6.029,CST-1368DR,4900,6084,13258,0.655,551
2022-02-14T14:50:47,42.805,6.029,CST-1368DR,4900,6083,13256,0.655,551
2022-02-14T14:53:48,42.805,6.029,CST-1368DR,4900,6082,13252,0.657,551
2022-02-14T14:56:50,42.805,6.029,CST-1368DR,4900,6084,13258,0.655,551
2022-02-14T14:59:51,42.805,6.029,CST-1368DR,4900,6082,13253,0.656,551
2022-02-14T15:02:53,42.805,6.029,CST-1368DR,4900,6083,13256,0.655,551
2022-02-14T15:05:54,42.805,6.029,CST-1368DR,4900,6085,13259,0.654,551
2022-02-14T15:08:56,42.805,6.029,CST-1368DR,4900,6083,13256,0.655,551
2022-02-14T15:11:58,42.805,6.029,CST-1368DR,4900,6083,13256,0.655,551
2022-02-14T15:14:59,42.805,6.029,CST-1368DR,4900,6083,13254,0.656,551
2022-02-14T15:18:01,42.805,6.029,CST-1368DR,4900,6084,13258,0.655,551
2022-02-14T15:21:02,42.805,6.029,CST-1368DR,4900,6084,13257,0.655,551
2022-02-14T15:24:04,42.805,6.029,CST-1368DR,4900,6085,13260,0.654,551
2022-02-14T15:27:06,42.805,6.029,CST-1368DR,4900,6086,13261,0.654,551
2022-02-14T15:30:07,42.805,6.029,CST-1368DR,4900,6086,13261,0.654,551
2022-02-14T15:33:09,42.805,6.029,CST-1368DR,4900,6084,13257,0.655,551
2022-02-14T15:36:10,42.805,6.029,CST-1368DR,4900,6083,13256,0.655,551
2022-02-14T15:39:12,42.805,6.029,CST-1368DR,4900,6083,13256,0.655,551
2022-02-14T15:42:13,42.805,6.029,CST-1368DR,4900,6084,13257,0.655,551
2022-02-14T15:45:15,42.805,6.029,CST-1368DR,4900,6082,13254,0.656,551
2022-02-14T15:48:17,42.805,6.029,CST-1368DR,4900,6083,13256,0.655,551
2022-02-14T15:51:18,42.805,6.029,CST-1368DR,4900,6083,13254,0.656,551
2022-02-14T15:54:20,42.805,6.029,CST-1368DR,4900,6082,13254,0.656,551
2022-02-14T15:57:21,42.805,6.029,CST-1368DR,4900,6082,13253,0.656,551
2022-02-14T16:00:23,42.805,6.029,CST-1368DR,4900,6083,13255,0.656,551
2022-02-14T16:03:25,42.805,6.029,CST-1368DR,4900,6083,13256,0.655,551
2022-02-14T16:06:26,42.805,6.029,CST-1368DR,4900,6082,13254,0.656,551
2022-02-14T16:09:28,42.805,6.029,CST-1368DR,4900,6082,13252,0.657,551
2022-02-14T16:12:29,42.805,6.029,CST-1368DR,4900,6083,13255,0.656,551
2022-02-14T16:15:31,42.805,6.029,CST-1368DR,4900,6081,13252,0.657,551
2022-02-14T16:18:32,42.805,6.029,CST-1368DR,4900,6082,13253,0.656,551
2022-02-14T16:21:34,42.805,6.029,CST-1368DR,4900,6082,13253,0.656,551
2022-02-14T16:24:36,42.805,6.029,CST-1368DR,4900,6083,13254,0.656,551
2022-02-14T16:27:37,42.805,6.029,CST-1368DR,4900,6082,13254,0.656,551
2022-02-14T16:30:39,42.805,6.029,CST-1368DR,4900,6083,13255,0.656,551
2022-02-14T16:33:40,42.805,6.029,CST-1368DR,4900,6083,13254,0.656,551
2022-02-14T16:36:42,42.805,6.029,CST-1368DR,4900,6083,13255,0.656,551
2022-02-14T16:39:43,42.805,6.029,CST-1368DR,4900,6084,13258,0.655,551
2022-02-14T16:42:45,42.805,6.029,CST-1368DR,4900,6082,13252,0.657,551
2022-02-14T16:45:47,42.805,6.029,CST-1368DR,4900,6082,13253,0.656,551
2022-02-14T16:48:48,42.805,6.029,CST-1368DR,4900,6072,13230,0.663,551
2022-02-14T16:51:50,42.805,6.029,CST-1368DR,4900,6083,13254,0.656,551